Regional Weather Roundup
Issued by NWS Jackson, KY

Home | Current Version | Previous Version | Graphics & Text | Print | Product List | Glossary On
Versions: 1 2 3 4 5 6 7 8 9 10 11 12 13 14 15 16 17 18 19 20 21 22 23 24 25 26 27 28 29 30 31 32 33 34 35 36 37 38 39 40 41 42 43 44 45 46 47 48 49 50
000
ASUS43 KJKL 291310
RWRJKL

EAST KENTUCKY HOURLY WEATHER ROUNDUP
NATIONAL WEATHER SERVICE JACKSON KY
900 AM EDT SAT APR 29 2017

NOTE: "FAIR" INDICATES FEW OR NO CLOUDS BELOW 12,000 FEET WITH
NO SIGNIFICANT WEATHER AND/OR OBSTRUCTIONS TO VISIBILITY.

* THESE REPORTS ARE NOT UNDER NWS QUALITY CONTROL AND MAY NOT
  REPORT WEATHER SUCH AS PRECIPITATION AND FOG.

KYZ079-080-083-085-087-088-110-112-115-119-120-291400
...EASTERN KENTUCKY...

CITY           SKY/WX    TMP DP  RH WIND       PRES   REMARKS
JACKSON        PTSUNNY   73  65  75 S3        30.10R
LONDON         CLOUDY    73  64  73 S3        30.09R
SOMERSET*      CLOUDY    72  64  78 S3        30.09R
MONTICELLO*    MOSUNNY   74  68  81 VRB6      30.08R
WILLIAMSBURG*  CLOUDY    73  68  83 SE6       30.09R
MIDDLESBORO*   CLOUDY    73  65  75 E3        30.12S
HARLAN APT*    MOSUNNY   73  61  64 CALM      30.13S
PIKE CO APT*     N/A     72  64  74 CALM      30.13R
BIG SANDY APT* MOSUNNY   73  63  70 E6        30.12R
MOREHEAD APT*  CLOUDY    64  61  88 S3        30.09R
$$

KYZ035-036-041-042-044-050-067-078-099-291400
...CENTRAL KENTUCKY...

CITY           SKY/WX    TMP DP  RH WIND       PRES   REMARKS
MT STERLING*   CLOUDY    68  63  83 S7        30.07R
FLEMING/MASON* CLOUDY    64  61  89 SE9       30.05S
DANVILLE*      CLOUDY    72  64  78 S10G16    30.06R
LEXINGTON      CLOUDY    69  62  78 S12       30.03R
FRANKFORT      CLOUDY    69  62  78 S8        30.01R
LOUISVILLE     CLOUDY    69  64  84 NW10      30.03R
LEBANON*         N/A     75  66  73 S14G23    30.03R
GLASGOW*       PTSUNNY   75  66  74 S12       30.02R
BOWLING GREEN  CLOUDY    77  70  79 S14       30.00R
$$

KYZ091>093-OHZ055-061-077-WVZ005-015-034-035-042-291400
...SOUTHERN OHIO/WEST VIRGINIA...

CITY           SKY/WX    TMP DP  RH WIND       PRES   REMARKS
COVINGTON      TSTM      63  63 100 SW6       30.08R VSB 1/2
COLUMBUS       CLOUDY    63  63 100 S6        30.07R
DAYTON         TSTM      60  60 100 W3        30.06R FOG
WILMINGTON     TSTM      62  62 100 SE5       30.01S
HUNTINGTON     CLOUDY    68  62  81 SE5       30.08R
CHARLESTON     PTSUNNY   67  62  84 S5        30.12S
PINEVILLE*     MOSUNNY   69  64  85 MISG      30.21F
BECKLEY        CLOUDY    67  59  75 E6        30.21R
BLUEFIELD      CLOUDY    70  56  61 S5        30.23S
LOGAN CO APT*    N/A     72  63  73 VRB3      30.15R
$$

VAZ002-007-008-TNZ017-027-036-066-071-291400
...SOUTHWEST VIRGINIA/EAST TENNESSEE...

CITY           SKY/WX    TMP DP  RH WIND       PRES   REMARKS
WISE*          MOSUNNY   70  59  68 SE6       30.20F
JONESVILLE*      N/A     68  63  83 CALM      30.16R
ABINGDON*      CLOUDY    70  64  80 E6        30.20R
BRISTOL        PTSUNNY   68  62  81 CALM      30.16S
MORRISTOWN*    SUNNY     70  64  83 CALM      30.12R
SEVIERVILLE*   SUNNY     66  63  88 E3        30.10S
KNOXVILLE      CLOUDY    70  63  78 CALM      30.10S
LAFOLLETTE*    SUNNY     75  66  73 S9        30.12F
OAK RIDGE      SUNNY     76  66  71 VRB3      30.11S
CROSSVILLE     CLOUDY    71  64  78 S8        30.12R
NASHVILLE      PTSUNNY   75  68  78 S12       30.01R
$$

...KEY TO REMARKS...
VSB - VISIBILITY IN MILES
WCI - WIND CHILL INDEX
HX  - HEAT INDEX

$$



USA.gov is the U.S. government's official web portal to all federal, state and local government web resources and services.